Location: Bakov nad Jizerou
(50.4784°N, 14.9394°E)
Time: 14:43:11
(UTC+00:00)

Cosmos 1536 Rocket - Pass Details

Date: 17 October 2021
Orbit: 605 x 632 km, 82.5° (Epoch: 05 December)

Event Time Altitude Azimuth Distance (km) Brightness Sun altitude
Rises 04:08:21 0° 137° (SE) 2,903 7.7 -13.1°
Reaches altitude 10° 04:11:39 10° 110° (ESE) 1,997 7.4 -12.6°
Maximum altitude 04:13:44 13° 82° (E) 1,784 7.3 -12.2°
Drops below altitude 10° 04:15:51 10° 53° (NE) 1,997 7.0 -11.9°
Sets 04:19:08 0° 27° (NNE) 2,903 7.4 -11.4°
